Lid_Strength_Index
2 2 2 2 2 2 1 1 2 2 2 2 2 2 3 3 4 6 8 6 5 4 5 7 8 8 8 9 9 9 12 12 11 11 11 10 11 9 9 9 9 8 9 8 6
2 2 2 1 2 2 2 2 2 3 3 3 3 2 3 3 6 8 5 5 4 4 8 9 9 9 9 10 10 11 12 11 10 10 11 10 11 10 10 10 10 9 8 9 7
2 2 2 2 2 2 2 2 2 2 3 3 3 3 3 4 8 8 6 5 5 5 7 8 8 9 10 10 10 11 12 11 11 11 11 11 11 10 11 11 9 9 8 9 9
2 2 2 2 2 2 2 2 2 2 4 4 4 4 4 6 11 8 6 6 6 6 8 9 9 10 11 11 10 13 11 11 11 11 11 11 10 11 10 10 9 8 8 8 9
1 1 2 2 2 2 2 2 2 2 4 4 4 4 6 9 9 8 7 7 7 8 9 9 10 10 11 11 11 12 11 10 10 10 11 10 11 11 11 9 8 9 10 9 9
1 1 1 2 2 3 2 2 2 3 4 4 4 5 7 10 8 7 8 7 8 8 9 9 10 10 11 11 12 11 11 11 10 10 10 12 11 11 10 8 9 9 10 10 9
1 2 2 3 3 3 3 3 2 4 4 4 4 6 9 10 8 7 7 8 8 8 10 9 9 10 10 11 10 11 13 10 10 10 11 11 13 12 9 8 10 9 9 9 9
2 3 3 3 3 3 3 3 3 5 4 4 5 7 10 8 7 8 7 8 7 7 8 8 8 9 10 10 11 12 11 12 11 11 11 12 13 9 9 9 10 9 9 9 9
4 4 4 4 4 3 3 3 5 5 5 5 7 8 10 8 10 8 8 9 8 8 8 8 8 10 10 12 12 11 13 12 11 11 12 12 12 9 9 9 9 9 9 9 9
5 5 5 5 4 4 3 6 5 5 6 7 8 9 11 11 10 9 8 8 9 9 10 10 10 12 11 12 15 13 13 12 12 11 12 12 12 10 9 9 9 9 8 8 9
5 5 5 4 5 4 4 6 8 8 9 9 9 10 11 10 9 10 9 10 10 11 12 11 12 13 11 11 11 13 14 14 12 10 12 13 12 11 9 9 9 8 8 9 9
4 4 4 4 4 4 6 7 7 8 9 9 10 11 10 10 12 11 9 12 12 13 12 13 13 12 12 12 13 13 14 14 12 12 14 13 13 11 10 9 9 10 10 10 11
5 4 4 4 4 5 6 7 7 6 9 10 11 11 11 11 12 12 11 12 13 13 13 13 12 12 13 13 14 13 14 14 14 13 12 13 13 10 10 10 10 10 11 11 11
5 4 3 4 6 6 7 7 6 6 11 12 13 12 12 11 14 11 10 11 13 13 13 13 12 13 13 13 13 15 13 14 14 14 15 12 17 11 9 10 11 11 10 11 11
5 5 4 4 5 8 7 6 6 7 19 12 14 11 12 13 13 13 10 11 13 13 12 13 13 13 14 13 13 13 12 13 13 14 15 13 16 11 11 13 12 11 12 12 12
5 5 4 4 6 7 6 6 7 13 19 15 14 14 14 13 13 12 12 10 11 13 13 12 12 12 12 12 12 12 12 12 13 15 18 16 16 13 14 13 12 12 12 13 13
5 4 4 5 7 6 6 7 13 17 13 16 16 14 13 14 14 13 13 13 13 15 14 13 12 12 11 13 11 12 13 17 19 19 19 17 18 14 13 13 13 13 13 13 13
4 4 5 5 5 5 6 10 17 15 14 13 14 13 14 14 13 13 13 13 13 13 13 15 17 13 12 12 13 12 13 17 21 20 17 17 18 15 13 13 13 13 14 12 12
2 3 5 5 5 6 8 15 14 14 12 13 13 14 14 14 14 13 13 13 12 11 15 15 15 12 12 11 11 14 15 13 17 19 20 16 14 14 13 12 12 12 12 11 11
3 3 5 5 5 6 11 13 13 12 12 12 14 13 15 15 15 14 13 12 13 11 10 13 16 13 13 12 12 13 12 16 16 21 21 16 16 16 14 12 14 13 12 12 12
3 6 4 5 5 8 13 13 14 11 11 13 14 15 14 15 13 14 14 13 11 12 11 12 13 14 14 15 14 15 15 15 16 18 19 20 17 14 12 13 14 13 12 12 12
4 10 4 4 10 12 13 13 12 12 11 12 11 13 13 14 13 12 13 12 10 11 13 11 13 15 14 14 13 13 13 14 17 19 18 19 16 13 13 13 13 12 11 11 11
6 6 3 5 12 12 13 12 11 13 12 12 12 11 11 13 14 13 13 11 11 12 13 12 14 16 16 16 14 15 14 14 16 17 18 18 15 15 14 11 10 11 12 12 13
5 10 8 7 8 10 13 13 13 10 10 9 11 11 13 14 13 14 14 12 11 12 11 11 14 15 16 15 13 16 15 14 15 18 18 17 15 14 13 13 13 12 12 12 12
6 10 10 11 11 11 10 11 14 14 11 10 11 10 12 15 15 15 12 13 11 10 11 12 16 16 15 15 15 15 16 15 17 17 19 17 19 15 13 14 13 13 11 12 12
8 8 9 10 9 10 10 12 12 12 12 12 12 11 11 13 12 14 12 12 12 12 12 12 16 17 17 16 17 17 16 16 15 17 17 17 17 13 13 12 12 12 12 13 13
5 5 6 9 10 11 11 11 11 10 10 9 10 11 12 11 10 10 9 10 10 12 13 14 15 17 17 17 18 18 17 16 16 17 17 18 15 13 14 13 12 12 12 13 13